Location: Alvesrode
(52.2014°N, 9.6014°E)
Time: 22:42:15
(UTC+00:00)

Daily predictions for brighter satellites

Satellite Brightness Start Highest point End
(mag) Time Altitude Azimuth Time Altitude Azimuth Time Altitude Azimuth
Cosmos 1626 Rocket 4.0 15:39:54 10° N 15:44:01 40° ENE 15:48:05 10° SE
Cosmos 2084 3.4 15:40:40 10° SW 15:44:53 86° NW 15:49:03 10° NE
IGS 5A 3.7 15:41:51 10° SE 15:45:36 43° ENE 15:49:23 10° N
Cosmos 2227 Rocket 3.0 15:41:13 10° NNW 15:46:09 30° NE 15:51:04 10° ESE
Cosmos 1892 Rocket 4.0 15:43:55 10° NNW 15:48:22 70° W 15:52:47 10° S
NOSS 2-2 (D) 4.2 15:48:20 10° S 15:51:06 24° SE 15:53:39 10° ENE
Cosmos 2369 Rocket 3.1 15:46:11 10° WSW 15:51:36 46° NW 15:57:05 10° NNE
Cosmos 2084 Rocket 3.7 15:47:53 10° NW 15:51:57 45° NNE 15:56:01 10° ESE
Cosmos 1943 Rocket 4.2 15:49:10 10° WNW 15:52:18 15° NNW 15:55:26 10° NNE
Cosmos 724 4.4 15:47:24 10° NW 15:53:29 63° NE 15:59:23 10° SE
Thor Agena Rocket 3.7 15:49:29 10° SE 15:54:31 52° ENE 15:59:31 10° N
BlueWalker 3 3.0 15:52:01 10° W 15:55:30 44° SSW 15:58:58 10° SE
Cosmos 1356 Rocket 3.3 15:55:08 10° S 15:59:09 68° E 16:03:14 10° NNE
Meteor 1-28 Rocket 3.6 15:56:03 10° NNE 15:59:10 34° E 16:02:15 10° SSE
Cosmos 2026 Rocket 4.3 15:54:10 10° NNW 16:00:22 75° W 16:06:40 10° S
Cosmos 2278 Rocket 4.3 15:58:44 10° WNW 16:01:56 15° NNW 16:05:08 10° NNE
Cosmos 1544 Rocket 4.1 16:00:03 10° SSE 16:04:08 39° E 16:08:16 10° NNE
Cosmos 1484 Rocket 2.4 16:01:19 10° SSE 16:04:50 84° ENE 16:08:21 10° NNW
Cosmos 1697 Rocket 4.2 16:02:03 10° SE 16:05:36 17° E 16:09:00 11° ENE
IRS-1C 4.5 16:00:43 10° SE 16:05:42 43° ENE 16:10:44 10° N
NOSS 2-2 (E) 4.0 16:02:53 10° S 16:05:45 26° SE 16:08:05 12° ENE
Intercosmos 24 3.7 16:04:16 10° N 16:08:20 68° ENE 16:11:52 10° SSE
Cosmos 405 Rocket 2.2 16:05:14 10° NNW 16:08:30 82° ENE 16:11:44 10° SSE
Cosmos 1634 Rocket 4.0 16:04:05 10° S 16:10:15 77° E 16:16:26 10° NNE
Okean 1-7 Rocket 4.3 16:06:44 10° N 16:10:39 30° ENE 16:14:32 10° SE
Lacrosse 5 rocket 1.1 16:09:27 10° WSW 16:13:12 80° NNW 16:16:22 14° ENE
CENTAUR R/B 2.8 16:12:16 10° SW 16:18:06 74° NW 16:25:22 11° NE
Cosmos 1461 4.3 16:15:19 10° SSE 16:18:08 19° ESE 16:20:09 14° E
Meteor 1-20 Rocket 4.3 16:14:23 10° N 16:19:44 51° ENE 16:25:02 10° SSE
Cosmos 1602 Rocket 3.7 16:18:09 10° N 16:22:28 52° ENE 16:26:44 10° SSE
Cosmos 1455 Rocket 4.0 16:18:20 10° SSW 16:22:31 47° WNW 16:26:46 10° N
Cosmos 2279 Rocket 4.0 16:18:41 10° S 16:24:51 71° E 16:31:04 10° NNE
IRIDIUM 103 4.5 16:22:33 10° N 16:27:40 52° E 16:32:45 10° SSE
SMAP 3.0 16:26:27 10° SSE 16:31:06 79° ENE 16:35:47 10° NNW
UNK 3.8 16:27:32 10° NNE 16:32:04 54° E 16:36:32 10° S
Cosmos 1656 3.7 16:26:58 10° SSW 16:32:32 67° ESE 16:37:56 11° NE
YAOGAN 1 3.6 16:31:41 10° ESE 16:35:05 24° ENE 16:38:29 10° N
Cosmos 1867 3.5 16:30:13 10° NW 16:35:42 72° NE 16:41:08 10° SE
Cosmos 2228 3.4 16:31:53 10° SSW 16:36:06 63° WNW 16:40:20 10° N
NOSS 2-2 (C) 2.9 16:33:03 10° SW 16:36:10 63° NW 16:38:05 20° NE
Landsat 7 3.7 16:31:58 10° SSE 16:36:36 70° ENE 16:41:15 10° N
SAR-Lupe-4 3.5 16:33:21 10° SSE 16:36:52 62° ENE 16:40:24 10° N
Cosmos 1486 Rocket 4.1 16:32:31 10° S 16:37:36 58° ESE 16:42:24 12° NNE
NOSS 7 (H) 4.0 16:35:41 10° NW 16:38:35 60° NE 16:41:17 12° ESE
Cosmos 2297 Rocket 2.4 16:33:51 10° NNW 16:39:32 79° WSW 16:45:12 10° SSE
USA 290 2.4 16:36:22 10° NNW 16:39:38 77° WSW 16:42:53 10° SSE
USA 215 3.5 16:35:28 16° ENE 16:40:49 59° N 16:47:15 10° WNW
Cosmos 2180 Rocket 4.4 16:36:19 10° S 16:42:23 68° E 16:48:30 10° NNE
Cosmos 1953 Rocket 4.3 16:41:19 10° N 16:45:16 30° ENE 16:49:12 10° SE
Resurs 01 Rocket 3.7 16:47:37 11° NNE 16:47:37 11° NNE 16:48:00 10° NNE
SAR-Lupe-1 4.0 16:42:21 10° SSE 16:45:55 69° ENE 16:49:32 10° N
IRIDIUM 106 4.2 16:40:49 10° N 16:46:03 72° E 16:51:16 10° S
Cosmos 1782 2.6 16:42:52 10° SSW 16:46:29 82° W 16:50:06 10° N
ATLAS CENTAUR R/B 2.7 16:43:41 10° WNW 16:46:38 32° WSW 16:49:29 10° S
CZ-4C R/B 3.0 16:40:53 10° NW 16:47:37 87° SW 16:56:07 10° SE
Cosmos 1607 4.2 16:42:40 10° NW 16:48:52 72° SW 16:55:07 10° SSE
Cosmos 1733 4.1 16:47:54 10° NW 16:49:11 19° W 16:50:25 10° SSW
CZ-2D R/B 2.6 16:49:18 10° SSE 16:52:26 89° ENE 16:55:37 10° NNW
Meteor 1-25 Rocket 4.2 16:49:15 10° N 16:55:06 73° ENE 17:00:53 10° SSE
IRS-P3 4.0 16:50:08 10° SSE 16:55:25 74° ENE 17:00:45 10° NNW
Lacrosse 4 Rocket 2.9 16:52:38 10° W 16:56:09 27° NW 16:59:05 13° NNE
Cosmos 1825 Rocket 3.5 16:51:56 10° N 16:56:15 58° ENE 17:00:31 10° SSE
Cosmos 2219 3.8 16:51:00 10° NNW 16:56:18 37° NE 16:59:37 20° E
ARIANE 5 R/B 2.6 16:52:07 10° SSE 16:57:12 81° WSW 17:02:22 10° NNW
Cosmos 2266 Rocket 3.9 16:52:23 10° N 16:58:37 88° E 17:04:42 10° S
Meteor 1-5 Rocket 4.1 16:57:21 10° N 17:02:37 57° ENE 17:07:57 10° SSE
Cosmos 2098 Rocket 3.3 16:58:48 10° SSW 17:02:55 72° WNW 17:07:50 10° N
Cosmos 2151 3.3 16:59:43 10° NNW 17:03:52 66° W 17:07:59 10° S
Cosmos 1743 3.6 17:01:25 10° NNW 17:04:31 42° W 17:07:36 10° SSW
SPOT 1/Viking Rocket 3.5 17:01:59 10° SSE 17:07:08 65° ENE 17:12:18 10° N
Cosmos 1980 Rocket 3.2 17:03:26 10° SSE 17:07:52 24° ESE 17:08:01 24° E
Cosmos 1844 Rocket 3.9 17:06:20 10° NNW 17:10:40 22° NE 17:10:59 22° NE
SL-16 R/B 3.4 17:08:43 10° N 17:14:42 50° WNW 17:20:38 10° SW
Cosmos 2263 Rocket 2.2 17:12:20 10° NNW 17:17:58 63° NE 17:23:09 12° SE
NOSS 3-2 (C) 3.1 17:15:05 10° SSW 17:20:10 70° SE 17:23:02 31° NE
NOSS 3-2 (A) 3.5 17:15:09 10° WSW 17:20:21 64° NW 17:24:05 25° NE
GEOS 3 Rocket 3.8 17:19:36 25° NE 17:22:48 74° NW 17:28:10 10° SW
CZ-4 R/B 4.2 17:20:03 10° SSE 17:24:00 89° WSW 17:27:58 10° NNW
MOS 1 Rocket 3.8 17:19:38 10° S 17:24:30 66° W 17:29:41 10° NNW
Cosmos 1076 Rocket 3.3 17:21:20 10° N 17:25:38 73° E 17:29:56 10° SSE
BREEZE M DEB (TANK) 3.8 17:24:16 10° SW 17:25:20 19° SSW 17:25:20 19° SSW
Cosmos 1933 3.2 17:25:12 10° SSW 17:29:02 82° W 17:30:45 31° N
Cosmos 2227 Rocket 2.4 17:25:04 10° NNW 17:30:43 72° WSW 17:36:20 10° SSE
Cosmos 1538 Rocket 3.9 17:26:24 10° NNW 17:31:42 71° ENE 17:36:28 13° SSE
Cosmos 1606 Rocket 3.5 17:28:07 10° S 17:32:31 86° W 17:35:24 22° N
Cosmos 2360 4.5 17:28:01 10° SW 17:33:43 67° NW 17:37:25 23° NNE
PSLV R/B 3.2 17:36:04 48° SE 17:37:05 71° ENE 17:41:08 10° N
Cosmos 2369 Rocket 4.4 17:33:34 10° WNW 17:37:07 16° NNW 17:40:31 10° NNE
CZ-2D R/B 3.4 17:33:40 10° SSE 17:37:53 84° WSW 17:42:04 10° NNW
COSMO-SKYMED 1 3.3 17:39:14 35° SSE 17:39:14 35° SSE 17:41:55 10° S
Cosmos 1943 Rocket 4.3 17:37:20 10° N 17:38:38 11° N 17:39:20 11° NNE
NOSS 2-2 (D) 4.0 17:37:16 10° WSW 17:40:03 33° NW 17:40:03 33° NW
Cosmos 1244 Rocket 4.4 17:34:36 10° N 17:40:51 61° ENE 17:47:00 10° SSE
SL-19 R/B 4.1 17:36:11 10° SSE 17:41:33 81° ENE 17:47:16 10° NNW
Resurs 1-3 3.4 17:37:35 10° SSE 17:41:54 86° ENE 17:46:14 10° NNW
Cosmos 1503 Rocket 4.2 17:38:03 10° SW 17:43:16 68° WNW 17:46:10 26° NNE
BREEZE-M DEB (TANK) 4.1 17:40:14 10° W 17:43:50 63° S 17:48:33 28° ESE
Meteor 2-20 4.3 17:42:04 10° S 17:48:13 77° E 17:54:10 11° NNE
Cosmos 2278 Rocket 4.3 17:46:49 10° NNW 17:48:40 11° N 17:49:06 11° N
Cosmos 1697 Rocket 2.6 17:43:07 10° SSW 17:48:44 87° ESE 17:50:45 42° NNE
Lacrosse 5 rocket 2.2 17:47:03 10° WNW 17:49:58 36° NNW 17:49:58 36° NNW
Cosmos 1354 Rocket 4.0 17:46:13 10° SSW 17:51:30 79° WNW 17:53:34 38° NNE
BREEZE-M DEB (TANK) 4.1 17:49:14 10° W 17:52:59 89° S 17:57:03 36° E
Cosmos 1461 3.0 17:50:36 10° SW 17:54:18 65° WNW 17:54:18 65° WNW
Spot 4 Rocket 4.2 17:50:36 10° S 17:55:41 71° WSW 18:00:50 10° NNW
IRAS Rocket 4.2 17:51:21 10° SSE 17:56:51 81° WSW 18:02:22 10° NNW
Cosmos 1726 Rocket 3.9 17:53:13 10° SSW 17:57:50 67° WNW 17:59:49 33° N
SL-08 R/B 4.4 17:52:51 10° N 17:59:10 69° ENE 18:05:28 10° SSE
Cosmos 1655 Rocket 4.4 17:53:40 10° NNW 17:59:51 64° W 18:05:59 10° S
SKYMED 2 3.7 17:59:36 54° NNW 18:00:26 70° WNW 18:04:45 10° SSW
Gbstr 26 Del rocket 4.1 18:00:13 10° SW 18:02:39 31° SSW 18:02:39 31° SSW
Meteor 2-10 4.2 18:01:54 10° NNW 18:07:12 74° W 18:12:41 10° S
CENTAUR R/B 3.7 18:03:50 10° W 18:09:53 38° NNW 18:12:27 30° NNE
Meteor 2-20 Rocket 4.3 18:04:07 10° S 18:10:21 80° E 18:12:30 43° NNE
YAOGAN 1 3.4 18:06:33 10° S 18:10:40 49° W 18:14:50 10° NNW
Cosmos 923 Rocket 4.4 18:08:44 10° NNW 18:12:38 50° N 18:12:38 50° N
USA 281 4.0 18:17:15 34° NNE 18:17:15 34° NNE 18:21:49 10° NNW
Cosmos 2082 3.6 18:11:02 10° NNW 18:16:47 88° ENE 18:17:04 82° SE
Meteor 1-26 Rocket 4.4 18:13:56 10° S 18:18:03 54° S 18:18:03 54° S
USA 238 DEB 3.5 18:14:16 10° SSW 18:19:57 62° SE 18:19:57 62° SE
USA 238 3.5 18:14:23 10° SSW 18:20:02 61° SSE 18:20:02 61° SSE
Resurs 01 Rocket 4.0 18:25:00 14° NNW 18:25:00 14° NNW 18:25:35 10° NNW
USA 215 3.1 18:22:49 69° ENE 18:23:34 77° NNE 18:30:08 10° WNW
Cosmos 2219 3.8 18:35:06 10° NW 18:40:42 55° WSW 18:41:35 50° SW
Cosmos 1980 Rocket 2.9 18:45:41 10° SW 18:49:48 48° SW 18:49:48 48° SW
Cosmos 1844 Rocket 4.1 18:49:51 10° NNW 18:52:37 30° NNW 18:52:37 30° NNW
Cosmos 2263 Rocket 4.0 18:56:46 10° NW 19:01:31 28° WSW 19:04:58 16° SSW
NOSS 3-2 (C) 4.5 19:06:14 10° W 19:10:27 38° NW 19:10:27 38° NW
CENTAUR R/B 4.3 19:55:39 10° NW 19:59:34 30° NNW 19:59:34 30° NNW
